Location: Hamayl? Da??
(36.7028°N, 30.1716°E)
Time: 13:53:56
(UTC+00:00)

Cosmos 2263 Rocket - Pass Details

Date: 04 August 2024
Orbit: 822 x 849 km, 71.0° (Epoch: 11 September)

Event Time Altitude Azimuth Distance (km) Brightness Sun altitude
Rises 22:49:19 0° 333° (NNW) 3,395 6.0 -35.4°
Reaches altitude 10° 22:51:48 10° 330° (NNW) 2,461 5.1 -35.3°
Enters shadow 22:54:12 26° 321° (NW) 1,614 3.9 -35.2°
